sat.trackr.live / text

‹ back to catalog

STARLINK-34847

NORAD 65211 · 2025-176P

PAYLOAD ACTIVE UNKNOWN

§ Identity

Operator
Country
US
Launch date
2025-08-14
Launch site
AFETR
Launch vehicle
Mass (kg)
RCS (m²)

Purposes: comms

External: N2YO · Heavens-Above · Gunter

§ Orbital elements

Epoch: 2026-05-24T23:59:30.859872Z

Period
94.10 min
Inclination
53.1567°
Eccentricity
0.0001048
Mean motion
15.30206229 rev/d
Perigee alt
474.5 km
Apogee alt
475.9 km
Semi-major
6,853.3 km
B*
4.3576e-4
RAAN
158.2925°
Arg perigee
79.5527°
Mean anomaly
280.5592°
Rev number
4,480

§ Raw data

STARLINK-348471 65211U 25176P   26144.99966273  .00012571  00000+0  43576-3 0  99972 65211  53.1567 158.2925 0001048  79.5527 280.5592 15.30206229 44801

JSON: /api/v1/satellites/65211 · /tle

For live sub-satellite position, see the globe view (requires WebGL).

§ Visibility from observer

Set your observer location to see the next 7 days of passes ≥ 10°. The values pass through the URL so the page stays shareable.

No JS? Fill the form by hand. The geolocation button needs JavaScript.